When you browse on this site, cookies collect data to enhance your experience and personalize the content and advertising you see.
Visit our Privacy Policy to learn more. By continuing to use the site, you agree to this use of cookies and data.
  • In Czech Republic
  • List of Countries
  • For 7 days
  • Water Temperature
  • Satellite Maps
  • Weather Map
  • Weather Widgets
  • user-avatar
    Login

    Hourly Weather Lunevo

    Today, 19 February, Tuesday

    Time Temperature Precipitation Wind Pressure Humidity
    00:00 -9°C° 0 mm 2 mps 748 mmHg 89%
    01:00 -9°C° 0 mm 2 mps 748 mmHg 89%
    02:00 -9°C° 0 mm 2 mps 747 mmHg 90%
    03:00 -10°C° 0 mm 3 mps 746 mmHg 89%
    04:00 -9°C° 0 mm 3 mps 746 mmHg 88%
    05:00 -10°C° 0 mm 4 mps 745 mmHg 87%
    06:00 -9°C° 0 mm 4 mps 745 mmHg 84%
    07:00 -10°C° 0 mm 5 mps 744 mmHg 82%
    08:00 -10°C° 0 mm 5 mps 744 mmHg 79%
    09:00 -7°C° 0 mm 5 mps 743 mmHg 77%
    10:00 -6°C° 0 mm 6 mps 743 mmHg 75%
    11:00 -4°C° 0 mm 6 mps 742 mmHg 73%
    12:00 -3°C° 0 mm 6 mps 742 mmHg 74%
    13:00 -3°C° 0 mm 6 mps 741 mmHg 75%
    14:00 -1°C° 0 mm 5 mps 741 mmHg 76%
    15:00 -2°C° 0 mm 5 mps 740 mmHg 78%
    16:00 -2°C° 0 mm 5 mps 740 mmHg 79%
    17:00 -4°C° 0 mm 5 mps 739 mmHg 81%
    18:00 -4°C° 0 mm 5 mps 739 mmHg 83%
    19:00 -4°C° 0 mm 5 mps 738 mmHg 85%
    20:00 -5°C° 0 mm 5 mps 737 mmHg 87%
    21:00 -4°C° 0 mm 6 mps 737 mmHg 88%
    22:00 -3°C° 0 mm 6 mps 736 mmHg 89%
    23:00 -3°C° 0 mm 6 mps 735 mmHg 90%

    Tomorrow, 20 February, Wednesday

    Time Temperature Precipitation Wind Pressure Humidity
    00:00 -2°C° 0.1 mm 6 mps 735 mmHg 89%
    01:00 -2°C° 0.1 mm 6 mps 734 mmHg 89%
    02:00 -2°C° 0.1 mm 6 mps 733 mmHg 89%
    03:00 -1°C° 0.1 mm 5 mps 733 mmHg 90%
    04:00 -1°C° 0.1 mm 5 mps 732 mmHg 91%
    05:00 0°C° 0.1 mm 5 mps 732 mmHg 92%
    06:00 -1°C° 0.1 mm 5 mps 732 mmHg 92%
    07:00 -1°C° 0.1 mm 5 mps 731 mmHg 92%
    08:00 -1°C° 0.1 mm 5 mps 731 mmHg 92%
    09:00 0°C° 0 mm 5 mps 731 mmHg 93%
    10:00 0°C° 0 mm 5 mps 731 mmHg 94%
    11:00 0°C° 0 mm 5 mps 731 mmHg 95%
    12:00 0°C° 0.1 mm 5 mps 731 mmHg 94%
    13:00 0°C° 0.1 mm 5 mps 731 mmHg 93%
    14:00 0°C° 0.1 mm 4 mps 731 mmHg 93%
    15:00 0°C° 0 mm 4 mps 731 mmHg 92%
    16:00 0°C° 0 mm 4 mps 730 mmHg 91%
    17:00 -1°C° 0 mm 4 mps 730 mmHg 91%
    18:00 -1°C° 0.1 mm 4 mps 730 mmHg 90%
    19:00 -1°C° 0.1 mm 4 mps 730 mmHg 90%
    20:00 -1°C° 0.1 mm 4 mps 729 mmHg 90%
    21:00 -1°C° 0.2 mm 4 mps 729 mmHg 90%
    22:00 -1°C° 0.2 mm 4 mps 729 mmHg 90%
    23:00 -1°C° 0.2 mm 4 mps 729 mmHg 90%

    Day after tomorrow, 21 February, Thursday

    Time Temperature Precipitation Wind Pressure Humidity
    00:00 -2°C° 0 mm 4 mps 729 mmHg 90%
    01:00 -3°C° 0 mm 4 mps 729 mmHg 90%
    02:00 -4°C° 0 mm 4 mps 729 mmHg 89%
    03:00 -5°C° 0.2 mm 5 mps 729 mmHg 89%
    04:00 -5°C° 0.2 mm 5 mps 730 mmHg 88%
    05:00 -4°C° 0.2 mm 5 mps 730 mmHg 87%
    06:00 -5°C° 0.2 mm 6 mps 730 mmHg 85%
    07:00 -6°C° 0.2 mm 6 mps 731 mmHg 84%
    08:00 -6°C° 0.2 mm 6 mps 731 mmHg 82%
    09:00 -6°C° 0.2 mm 6 mps 732 mmHg 81%
    10:00 -6°C° 0.2 mm 6 mps 732 mmHg 81%
    11:00 -7°C° 0.2 mm 7 mps 733 mmHg 81%
    12:00 -7°C° 0.2 mm 7 mps 734 mmHg 81%
    13:00 -8°C° 0.2 mm 7 mps 734 mmHg 82%
    14:00 -8°C° 0.2 mm 7 mps 735 mmHg 82%
    15:00 -8°C° 0.1 mm 7 mps 736 mmHg 82%
    16:00 -9°C° 0.1 mm 7 mps 737 mmHg 82%
    17:00 -11°C° 0.1 mm 7 mps 738 mmHg 81%
    18:00 -11°C° 0.1 mm 7 mps 739 mmHg 80%
    19:00 -12°C° 0.1 mm 7 mps 740 mmHg 79%
    20:00 -11°C° 0.1 mm 6 mps 741 mmHg 78%
    21:00 -12°C° 0 mm 6 mps 741 mmHg 78%
    22:00 -14°C° 0 mm 6 mps 742 mmHg 78%
    23:00 -14°C° 0 mm 6 mps 743 mmHg 77%

    22 February, Friday

    Time Temperature Precipitation Wind Pressure Humidity
    00:00 -14°C° 0 mm 6 mps 743 mmHg 77%
    01:00 -15°C° 0 mm 6 mps 744 mmHg 77%
    02:00 -15°C° 0 mm 6 mps 744 mmHg 77%
    03:00 -15°C° 0 mm 6 mps 745 mmHg 77%
    04:00 -16°C° 0 mm 6 mps 745 mmHg 78%
    05:00 -16°C° 0 mm 6 mps 746 mmHg 78%
    06:00 -16°C° 0 mm 6 mps 747 mmHg 76%
    07:00 -16°C° 0 mm 6 mps 747 mmHg 75%
    08:00 -16°C° 0 mm 6 mps 748 mmHg 73%
    09:00 -15°C° 0 mm 6 mps 748 mmHg 72%
    10:00 -14°C° 0 mm 7 mps 748 mmHg 71%
    11:00 -13°C° 0 mm 7 mps 748 mmHg 70%
    12:00 -13°C° 0 mm 7 mps 748 mmHg 71%
    13:00 -13°C° 0 mm 7 mps 748 mmHg 72%
    14:00 -12°C° 0 mm 7 mps 748 mmHg 73%
    15:00 -13°C° 0 mm 7 mps 748 mmHg 73%
    16:00 -14°C° 0 mm 6 mps 749 mmHg 74%
    17:00 -14°C° 0 mm 6 mps 749 mmHg 75%
    18:00 -15°C° 0 mm 6 mps 750 mmHg 75%
    19:00 -15°C° 0 mm 6 mps 750 mmHg 75%
    20:00 -15°C° 0 mm 6 mps 751 mmHg 76%
    21:00 -16°C° 0 mm 6 mps 751 mmHg 77%
    22:00 -16°C° 0 mm 6 mps 752 mmHg 78%
    23:00 -15°C° 0 mm 5 mps 752 mmHg 80%

    23 February, Saturday

    Time Temperature Precipitation Wind Pressure Humidity
    00:00 -17°C° 0 mm 5 mps 753 mmHg 81%
    01:00 -17°C° 0 mm 5 mps 753 mmHg 81%
    02:00 -17°C° 0 mm 5 mps 753 mmHg 82%
    03:00 -16°C° 0 mm 4 mps 754 mmHg 83%
    04:00 -16°C° 0 mm 4 mps 754 mmHg 84%
    05:00 -16°C° 0 mm 4 mps 754 mmHg 85%
    06:00 -16°C° 0 mm 4 mps 754 mmHg 86%
    07:00 -16°C° 0 mm 4 mps 755 mmHg 86%
    08:00 -17°C° 0 mm 4 mps 755 mmHg 87%
    09:00 -16°C° 0 mm 4 mps 755 mmHg 84%
    10:00 -15°C° 0 mm 4 mps 755 mmHg 82%
    11:00 -14°C° 0 mm 4 mps 755 mmHg 80%
    12:00 -13°C° 0 mm 3 mps 755 mmHg 78%
    13:00 -12°C° 0 mm 3 mps 755 mmHg 75%
    14:00 -10°C° 0 mm 3 mps 755 mmHg 73%
    15:00 -12°C° 0 mm 3 mps 755 mmHg 77%
    16:00 -10°C° 0 mm 2 mps 755 mmHg 80%
    17:00 -12°C° 0 mm 2 mps 755 mmHg 83%
    18:00 -12°C° 0 mm 2 mps 756 mmHg 85%
    19:00 -12°C° 0 mm 2 mps 756 mmHg 86%
    20:00 -13°C° 0 mm 2 mps 757 mmHg 88%
    21:00 -13°C° 0 mm 2 mps 757 mmHg 88%
    22:00 -11°C° 0 mm 1 mps 757 mmHg 88%
    23:00 -11°C° 0 mm 1 mps 757 mmHg 88%

    24 February, Sunday

    Time Temperature Precipitation Wind Pressure Humidity
    00:00 -11°C° 0 mm 1 mps 757 mmHg 87%
    01:00 -11°C° 0 mm 1 mps 757 mmHg 87%
    02:00 -11°C° 0 mm 1 mps 757 mmHg 86%
    03:00 -11°C° 0 mm 1 mps 757 mmHg 85%
    04:00 -11°C° 0 mm 1 mps 757 mmHg 84%
    05:00 -13°C° 0 mm 2 mps 757 mmHg 83%
    06:00 -13°C° 0 mm 2 mps 757 mmHg 83%
    07:00 -13°C° 0 mm 2 mps 757 mmHg 83%
    08:00 -12°C° 0 mm 2 mps 757 mmHg 84%
    09:00 -10°C° 0 mm 2 mps 757 mmHg 84%
    10:00 -8°C° 0 mm 2 mps 757 mmHg 84%
    11:00 -7°C° 0 mm 2 mps 757 mmHg 84%
    12:00 -6°C° 0 mm 2 mps 757 mmHg 84%
    13:00 -5°C° 0 mm 2 mps 757 mmHg 85%
    14:00 -5°C° 0 mm 3 mps 756 mmHg 86%
    15:00 -4°C° 0 mm 2 mps 756 mmHg 88%
    16:00 -5°C° 0 mm 2 mps 756 mmHg 90%
    17:00 -5°C° 0 mm 2 mps 755 mmHg 92%
    18:00 -5°C° 0 mm 2 mps 755 mmHg 93%
    19:00 -5°C° 0 mm 3 mps 755 mmHg 93%
    20:00 -5°C° 0 mm 3 mps 755 mmHg 94%
    21:00 -5°C° 0 mm 3 mps 754 mmHg 94%
    22:00 -5°C° 0 mm 3 mps 754 mmHg 94%
    23:00 -5°C° 0 mm 4 mps 753 mmHg 94%
    Show more